This demonstration page uses our WeatherBlox Daily Observations layout. Learn more.

Left ArrowRight Arrow

30.21309, -93.2044

Hourly Observations for March 11, 2015

Temp ( °F °C ) Dew Point ( °F °C ) Humidity (%) Winds ( mph kmh ) Pressure ( in mb ) Visibility ( mi km ) Precip ( " mm )
12:15 am 00:15 Cloudy 55 13 55 12.5 97 97 N 9 15 30.09 1019 7 11 0.00 0.00
12:35 am 00:35 Cloudy with Mist and Fog 55 13 55 12.5 97 97 NNW 8 13 30.09 1019 5 8 0.00 0.00
12:55 am 00:55 Cloudy with Mist and Fog 55 13 55 12.5 97 97 N 8 13 30.09 1019 5 8 0.00 0.00
1:15 am 01:15 Cloudy with Mist and Fog 55 13 55 12.5 97 97 N 6 9 30.09 1019 5 8 0.00 0.00
1:35 am 01:35 Cloudy with Mist and Fog 55 13 55 12.5 97 97 N 8 13 30.09 1019 5 8 0.00 0.00
1:55 am 01:55 Cloudy with Mist and Fog 55 13 55 12.5 97 97 N 8 13 30.09 1019 5 8 0.00 0.00
2:15 am 02:15 Cloudy with Mist and Fog 55 13 55 12.6 97 97 NNE 5 7 30.09 1019 4 6 0.00 0.00
2:35 am 02:35 Cloudy with Mist and Fog 56 13.1 55 12.6 97 97 N 5 7 30.09 1019 5 8 0.00 0.00
2:55 am 02:55 Cloudy with Mist and Fog 56 13.1 55 12.5 96 96 Calm 30.09 1019 5 8 0.00 0.00
3:15 am 03:15 Cloudy 56 13.1 55 12.5 96 96 NE 5 7 30.12 1020 7 11 0.00 0.00
3:35 am 03:35 Cloudy 56 13.1 55 12.5 96 96 NNE 5 7 30.09 1019 7 11 0.00 0.00
3:55 am 03:55 Cloudy 55 13 54 12.4 96 96 NNE 3 6 30.12 1020 7 11 0.00 0.00
4:15 am 04:15 Cloudy with Mist and Fog 55 12.9 55 12.5 97 97 N 5 7 30.09 1019 4 6 0.00 0.00
4:35 am 04:35 Cloudy with Mist and Fog 55 12.7 55 12.5 99 99 N 5 7 30.09 1019 3 5 0.00 0.00
4:55 am 04:55 Cloudy with Mist and Fog 55 12.6 55 12.5 99 99 NNE 5 7 30.12 1020 3 4 0.00 0.00
5:15 am 05:15 Cloudy with Mist and Fog 55 12.7 55 12.5 99 99 NNE 5 7 30.12 1020 3 5 0.00 0.00
6:00 am 06:00 Cloudy with Mist and Fog 55 13 54 12 94 94 VRB 3 6 30.12 1020 3 5 0.00 0.00
6:55 am 06:55 Cloudy 55 13 54 12 94 94 VRB 3 6 30.12 1020 10 16 0.00 0.00
7:50 am 07:50 Cloudy 54 12 54 12 100 100 NNE 12 19 30.12 1020 10 16 0.00 0.00
8:50 am 08:50 Cloudy 55 13 54 12 94 94 N 12 19 30.18 1022 10 16 0.00 0.00
9:50 am 09:50 Cloudy 55 13 54 12 94 94 N 9 15 30.18 1022 10 16 0.00 0.00
10:50 am 10:50 Cloudy 55 13 54 12 94 94 NNE 6 9 30.18 1022 10 16 0.00 0.00
11:50 am 11:50 Cloudy 57 14 54 12 88 88 N 7 11 30.18 1022 10 16 0.00 0.00
12:50 pm 12:50 Cloudy 59 15 55 13 88 88 N 7 11 30.15 1021 10 16 0.00 0.00
1:50 pm 13:50 Cloudy 59 15 55 13 88 88 N 7 11 30.15 1021 10 16 0.00 0.00
2:50 pm 14:50 Cloudy 61 16 55 13 83 83 N 8 13 30.12 1020 10 16 0.00 0.00
3:50 pm 15:50 Cloudy with Light Rain 61 16 55 13 83 83 NE 7 11 30.15 1021 7 11 0.00 0.00
4:50 pm 16:50 Cloudy with Light Rain 59 15 57 14 94 94 NNE 8 13 30.15 1021 7 11 0.00 0.00
5:50 pm 17:50 Cloudy with Light Rain 57 14 57 14 100 100 NNE 5 7 30.15 1021 7 11 0.00 0.00
6:50 pm 18:50 Cloudy with Light Rain 57 14 57 14 100 100 NNE 10 17 30.12 1020 7 11 0.00 0.00
7:50 pm 19:50 Cloudy 57 14 55 13 94 94 NNE 8 13 30.12 1020 10 16 0.00 0.00
8:50 pm 20:50 Cloudy 57 14 55 13 94 94 NNE 7 11 30.12 1020 10 16 0.00 0.00
9:50 pm 21:50 Cloudy 57 14 55 13 94 94 NNE 7 11 30.15 1021 10 16 0.00 0.00
10:15 pm 22:15 Cloudy 58 14.3 56 13.5 95 95 NNE 7 11 30.15 1021 10 16 0.00 0.00
10:35 pm 22:35 Cloudy 58 14.5 56 13.6 94 94 NNE 8 13 30.15 1021 10 16 0.00 0.00
10:55 pm 22:55 Cloudy 58 14.5 56 13.6 94 94 NNE 6 9 30.15 1021 10 16 0.00 0.00
11:15 pm 23:15 Cloudy 58 14.5 56 13.5 94 94 NNE 9 15 30.15 1021 10 16 0.00 0.00
11:35 pm 23:35 Cloudy with Light Rain 58 14.5 56 13.4 93 93 NNE 9 15 30.12 1020 10 16 0.00 0.00
11:55 pm 23:55 Cloudy 58 14.5 56 13.2 92 92 NNE 12 19 30.12 1020 10 16 0.00 0.00

Powered by AerisWeather